Kansas City, MO

8:43 PM CDT on July 25, 2016 (GMT -0500)
Kansas City International

Weather History for KMCI - January, 2014

Change the Weather History Date:

Wednesday, January 22, 2014

  Actual Average Record
Temperature  
Mean Temperature 21 °F 29 °F  
Max Temperature 37 °F 38 °F 70 °F (1967)
Min Temperature 5 °F 19 °F -10 °F (1930)
Degree Days  
Heating Degree Days 44 36  
Month to date heating degree days 875 792  
Since 1 July heating degree days 3072 2834  
Cooling Degree Days 0 0  
Month to date cooling degree days 0 0  
Year to date cooling degree days 0 0  
Moisture  
Dew Point 5 °F    
Average Humidity 44    
Maximum Humidity 62    
Minimum Humidity 26    
Precipitation  
Precipitation 0.00 in 0.04 in 0.91 in (1965)
Month to date precipitation 0.36 0.71  
Year to date precipitation 0.36 0.71  
Snow  
Snow 0.00 in 0.20 in 6.80 in (1898)
Month to date snowfall 5.1 3.1  
Since 1 July snowfall 10.8 9.3  
Snow Depth 0.00 in    
Sea Level Pressure  
Sea Level Pressure 30.22 in    
Wind  
Wind Speed 14 mph (NW)    
Max Wind Speed 31 mph    
Max Gust Speed 37 mph    
Visibility 10 miles    
Events      
T = Trace of Precipitation, MM = Missing Value Source: NWS Daily Summary

Daily Weather History Graph

Daily Weather History Graph

Search for Another Location

Airport or City:

Trip Planner

Search our weather history database for the weather conditions in past years. The results will help you decide how hot, cold, wet, or windy it might be!

Date:

Astronomy

Jan. 22, 2014 Rise Set
Actual Time 7:33 AM CST 5:27 PM CST
Civil Twilight 7:04 AM CST 5:56 PM CST
Nautical Twilight 6:31 AM CST 6:29 PM CST
Astronomical Twilight 6:00 AM CST 7:01 PM CST
Moon 11:58 PM CST (1/22) 10:37 AM CST (1/22)
Length of Visible Light 10h 52m
Length of Day
9h 54m
Waning Gibbous, 65% of the Moon is Illuminated
Jan 22
Waning Gibbous
Jan 23
Last Quarter
Jan 30
New
Feb 6
First Quarter
Feb 14
Full

Hourly Weather History & Observations

Time (CST) Temp. Windchill Dew Point Humidity Pressure Visibility Wind Dir Wind Speed Gust Speed Precip Events Conditions
12:53 AM 21.0 °F 8.6 °F -0.9 °F 38% 30.11 in 10.0 mi SSW 12.7 mph - N/A   Overcast
1:53 AM 21.0 °F 10.6 °F 1.0 °F 42% 30.11 in 10.0 mi WSW 9.2 mph - N/A   Overcast
2:53 AM 21.9 °F 11.7 °F 1.9 °F 42% 30.11 in 10.0 mi WSW 9.2 mph - N/A   Overcast
3:53 AM 24.1 °F 16.0 °F 5.0 °F 44% 30.10 in 10.0 mi West 6.9 mph - N/A   Overcast
4:11 AM 24.1 °F 15.2 °F 7.0 °F 48% 30.06 in 10.0 mi WNW 8.1 mph - N/A   Overcast
4:53 AM 25.0 °F 16.3 °F 8.1 °F 49% 30.09 in 10.0 mi West 8.1 mph - N/A   Overcast
5:53 AM 21.9 °F 13.4 °F 8.1 °F 55% 30.11 in 10.0 mi West 6.9 mph - N/A   Scattered Clouds
6:53 AM 21.9 °F 12.5 °F 9.0 °F 58% 30.12 in 10.0 mi WNW 8.1 mph - N/A   Partly Cloudy
7:53 AM 21.9 °F 14.5 °F 10.9 °F 63% 30.14 in 10.0 mi West 5.8 mph - N/A   Partly Cloudy
8:53 AM 28.0 °F 19.3 °F 16.0 °F 61% 30.16 in 10.0 mi NW 9.2 mph - N/A   Scattered Clouds
9:36 AM 28.9 °F 15.4 °F 15.1 °F 56% 30.13 in 10.0 mi NNW 21.9 mph 31.1 mph N/A   Mostly Cloudy
9:53 AM 27.0 °F 12.5 °F 12.9 °F 56% 30.18 in 10.0 mi NW 23.0 mph 31.1 mph N/A   Mostly Cloudy
10:11 AM 28.0 °F 15.7 °F 12.9 °F 53% 30.16 in 10.0 mi NNW 17.3 mph 26.5 mph N/A   Partly Cloudy
10:53 AM 27.0 °F 14.3 °F 10.0 °F 49% 30.22 in 10.0 mi NW 17.3 mph 25.3 mph N/A   Partly Cloudy
11:53 AM 28.9 °F 21.9 °F 6.1 °F 38% 30.20 in 10.0 mi WNW 6.9 mph - N/A   Partly Cloudy
12:53 PM 32.0 °F 24.2 °F 6.1 °F 34% 30.16 in 10.0 mi West 9.2 mph - N/A   Partly Cloudy
1:53 PM 35.1 °F 25.2 °F 3.0 °F 26% 30.16 in 9.0 mi West 16.1 mph - N/A   Mostly Cloudy
2:53 PM 36.0 °F 26.3 °F 3.9 °F 26% 30.16 in 10.0 mi NW 16.1 mph 26.5 mph N/A   Mostly Cloudy
3:53 PM 36.0 °F 25.3 °F 5.0 °F 27% 30.17 in 10.0 mi NW 19.6 mph - N/A   Scattered Clouds
4:53 PM 33.1 °F 23.4 °F 8.1 °F 35% 30.18 in 10.0 mi NW 13.8 mph 20.7 mph N/A   Mostly Cloudy
5:53 PM 28.0 °F 15.3 °F 10.9 °F 49% 30.23 in 10.0 mi North 18.4 mph 25.3 mph N/A   Mostly Cloudy
6:53 PM 25.0 °F 10.9 °F 10.9 °F 55% 30.30 in 10.0 mi North 19.6 mph 34.5 mph N/A   Overcast
7:53 PM 19.9 °F 2.8 °F 7.0 °F 57% 30.35 in 10.0 mi North 24.2 mph 32.2 mph N/A   Mostly Cloudy
8:53 PM 12.9 °F -5.3 °F -9.0 °F 37% 30.41 in 10.0 mi North 20.7 mph 29.9 mph N/A   Clear
9:53 PM 9.0 °F -9.5 °F -9.0 °F 44% 30.47 in 10.0 mi North 18.4 mph 27.6 mph N/A   Clear
10:53 PM 7.0 °F -9.1 °F -9.0 °F 48% 30.53 in 10.0 mi North 12.7 mph - N/A   Clear
11:53 PM 5.0 °F -13.0 °F -11.0 °F 48% 30.56 in 10.0 mi North 15.0 mph 28.8 mph N/A   Scattered Clouds